Location: Okie-Tex Star Party
(36.8978°N, 102.9520°W)
Time: 04:04:35
(UTC-05:00)

Amateur Radio Satellites - All Passes

Search period start: 30 July 2014 03:34
Search period end: 31 July 2014 03:34
Location: Okie-Tex Star Party, 36.8978°N, 102.9520°W

Satellite Date Start Highest point End Downlink Frequencies (MHz)
Time Altitude Azimuth
ITAMSAT 1 30 Jul 03:52:09 03:57:16 59° 101° (E) 04:02:21 435.822 SSB
Uribyol 2 30 Jul 04:11:17 04:16:28 84° 284° (WNW) 04:21:37 436.500 FM
AO-27 30 Jul 04:11:38 04:16:50 87° 284° (WNW) 04:22:00 436.795 MHz FM
TMSAT-1 30 Jul 04:15:45 04:20:19 29° 96° (E) 04:24:50 436.925 FM
PANSAT 30 Jul 04:22:46 04:22:56 10° 160° (SSE) 04:23:07 not established
JAS-1B 30 Jul 04:38:51 04:48:10 85° 104° (ESE) 04:55:58 435.800 - 435.900 CW/SSB
Gurwin Techsat 1B 30 Jul 04:40:21 04:45:40 71° 102° (ESE) 04:50:56 435.225 FM
Oscar 19 30 Jul 04:40:36 04:44:28 22° 294° (WNW) 04:48:20 437.125 CW, 437.150 USB
AO-7 30 Jul 04:43:19 04:47:53 16° 91° (E) 04:52:24 29.400 - 29.500 MHz
AO-Echo 30 Jul 04:47:31 04:52:04 35° 290° (WNW) 04:56:29 ?
OPAL 30 Jul 05:05:18 05:10:15 89° 74° (ENE) 05:15:13 ?
Uosat F 30 Jul 05:07:36 05:11:01 18° 94° (E) 05:14:24 435.120 FM
ISS 30 Jul 05:08:54 05:09:46 11° 19° (NNE) 05:10:38 145.800 FM
Oscar 16 30 Jul 05:11:19 05:12:42 11° 299° (WNW) 05:14:06 437.025 USB, Beacon 2401.1428
ITAMSAT 1 30 Jul 05:33:14 05:36:14 16° 297° (WNW) 05:39:13 435.822 SSB
TMSAT-1 30 Jul 05:55:33 06:00:10 31° 291° (WNW) 06:04:45 436.925 FM
PANSAT 30 Jul 05:59:34 06:02:29 20° 172° (S) 06:05:24 not established
Gurwin Techsat 1B 30 Jul 06:22:25 06:24:59 14° 298° (WNW) 06:27:32 435.225 FM
JAS-1B 30 Jul 06:30:51 06:37:18 22° 305° (NW) 06:43:11 435.800 - 435.900 CW/SSB
AO-7 30 Jul 06:33:13 06:41:35 89° 107° (ESE) 06:49:53 29.400 - 29.500 MHz
KITSAT 1 30 Jul 06:33:16 06:41:00 51° 111° (ESE) 06:48:44 435.175 FM
ISS 30 Jul 06:43:54 06:47:10 46° 37° (NE) 06:50:25 145.800 FM
Hamsat 30 Jul 06:44:52 06:46:51 13° 92° (E) 06:48:50 145.90 MHz
Uosat F 30 Jul 06:45:14 06:49:59 44° 289° (WNW) 06:54:42 435.120 FM
JAS-2 30 Jul 06:56:17 06:59:28 15° 89° (E) 07:02:30 435.800 - 435.900 CW/SSB, 435.910 FM
Saudisat 1A 30 Jul 07:16:30 07:19:25 18° 110° (ESE) 07:22:21 436.775 MHz
MaSat-1 30 Jul 07:22:17 07:27:22 46° 61° (ENE) 07:32:08 437.345 MHz
STRAND 1 30 Jul 07:30:27 07:35:26 54° 73° (ENE) 07:40:27 ?
PANSAT 30 Jul 07:39:07 07:42:10 22° 185° (S) 07:45:13 not established
Hamsat 30 Jul 08:18:53 08:23:02 47° 286° (WNW) 08:27:11 145.90 MHz
ISS 30 Jul 08:21:32 08:23:35 15° 232° (SW) 08:25:38 145.800 FM
AO-7 30 Jul 08:27:52 08:33:16 19° 306° (NW) 08:38:39 29.400 - 29.500 MHz
KITSAT 1 30 Jul 08:29:18 08:36:35 36° 310° (NW) 08:43:55 435.175 FM
JAS-2 30 Jul 08:39:27 08:45:09 57° 288° (WNW) 08:50:19 435.800 - 435.900 CW/SSB, 435.910 FM
Saudisat 1A 30 Jul 08:54:28 08:58:40 42° 305° (NW) 09:02:53 436.775 MHz
MaSat-1 30 Jul 09:00:33 09:04:17 20° 259° (WSW) 09:07:48 437.345 MHz
STRAND 1 30 Jul 09:11:51 09:14:54 16° 267° (W) 09:17:58 ?
PANSAT 30 Jul 09:19:55 09:21:46 13° 197° (SSW) 09:23:36 not established
SO-67 30 Jul 09:26:15 09:29:32 40° 285° (WNW) 09:32:48 435.3500 MHz FM
HO-68 30 Jul 09:42:48 09:47:38 19° 93° (E) 09:52:27 435.675 MHz FM
Sapphire 30 Jul 09:44:47 09:48:32 19° 49° (NE) 09:52:17 437.095 MHz 1200 baud AX-25 AFSK
PCSat 30 Jul 10:17:15 10:22:14 35° 56° (NE) 10:27:10 145.825 MHz
UKube-1 30 Jul 10:40:04 10:43:59 32° 98° (E) 10:47:52 145.840 MHz, 145.915 MHz
Oscar 11 30 Jul 11:23:22 11:27:38 54° 100° (E) 11:31:53 145.825 FM, Beacon 2401.500 USB
Sapphire 30 Jul 11:27:02 11:32:24 63° 247° (WSW) 11:37:44 437.095 MHz 1200 baud AX-25 AFSK
HO-68 30 Jul 11:28:45 11:35:51 70° 289° (WNW) 11:42:55 435.675 MHz FM
FUNcube-1 30 Jul 11:49:03 11:52:54 35° 98° (E) 11:56:48 145.950 - 145.970 MHz USB
PCSat 30 Jul 12:00:53 12:05:29 29° 252° (WSW) 12:10:04 145.825 MHz
SO-50 30 Jul 12:16:48 12:20:08 21° 110° (ESE) 12:23:32 436.795 FM
UKube-1 30 Jul 12:16:49 12:19:57 20° 293° (WNW) 12:23:05 145.840 MHz, 145.915 MHz
Oscar 11 30 Jul 13:01:31 13:03:20 12° 295° (WNW) 13:05:09 145.825 FM, Beacon 2401.500 USB
Oscar 16 30 Jul 13:09:02 13:10:09 11° 61° (ENE) 13:11:17 437.025 USB, Beacon 2401.1428
HO-68 30 Jul 13:19:55 13:22:16 12° 307° (NW) 13:24:36 435.675 MHz FM
FUNcube-1 30 Jul 13:26:22 13:29:02 17° 292° (WNW) 13:31:43 145.950 - 145.970 MHz USB
RS-15 30 Jul 13:30:57 13:41:23 47° 109° (ESE) 13:51:33 29.354 - 29.394 USB, Beacon 29.352 USB
JAS-1B 30 Jul 13:33:43 13:38:08 14° 50° (NE) 13:42:40 435.800 - 435.900 CW/SSB
Uribyol 2 30 Jul 13:50:48 13:53:13 13° 62° (ENE) 13:55:38 436.500 FM
AO-27 30 Jul 13:51:29 13:53:50 13° 62° (ENE) 13:56:10 436.795 MHz FM
SO-50 30 Jul 13:56:20 14:00:26 35° 307° (NW) 14:04:38 436.795 FM
UOSAT-12 30 Jul 14:08:52 14:12:19 22° 110° (ESE) 14:15:50 437.025 FM, 437.400 FM
Oscar 19 30 Jul 14:15:14 14:20:06 47° 72° (ENE) 14:25:00 437.125 CW, 437.150 USB
AO-Echo 30 Jul 14:19:40 14:23:58 26° 67° (ENE) 14:28:16 ?
Gurwin Techsat 1B 30 Jul 14:24:31 14:25:19 10° 60° (ENE) 14:26:08 435.225 FM
KITSAT 1 30 Jul 14:29:45 14:35:13 19° 39° (NE) 14:40:39 435.175 FM
Oscar 16 30 Jul 14:43:38 14:48:45 85° 257° (WSW) 14:53:54 437.025 USB, Beacon 2401.1428
ITAMSAT 1 30 Jul 15:07:49 15:13:00 72° 74° (ENE) 15:18:12 435.822 SSB
JAS-1B 30 Jul 15:17:47 15:26:29 62° 69° (ENE) 15:36:08 435.800 - 435.900 CW/SSB
Uribyol 2 30 Jul 15:26:53 15:32:04 71° 258° (WSW) 15:37:15 436.500 FM
AO-27 30 Jul 15:27:28 15:32:41 73° 258° (WSW) 15:37:55 436.795 MHz FM
TMSAT-1 30 Jul 15:34:15 15:39:04 36° 70° (ENE) 15:43:53 436.925 FM
AO-7 30 Jul 15:40:04 15:45:48 21° 55° (NE) 15:51:31 29.400 - 29.500 MHz
RS-15 30 Jul 15:43:01 15:53:37 48° 310° (NW) 16:04:06 29.354 - 29.394 USB, Beacon 29.352 USB
UOSAT-12 30 Jul 15:47:56 15:52:12 38° 306° (NW) 15:56:34 437.025 FM, 437.400 FM
Oscar 19 30 Jul 15:56:18 15:59:40 18° 267° (W) 16:03:03 437.125 CW, 437.150 USB
AO-Echo 30 Jul 15:57:37 16:02:29 37° 263° (W) 16:07:24 ?
Gurwin Techsat 1B 30 Jul 15:59:08 16:04:27 88° 76° (ENE) 16:09:48 435.225 FM
Uosat F 30 Jul 16:18:48 16:22:32 21° 66° (ENE) 16:26:16 435.120 FM
KITSAT 1 30 Jul 16:23:51 16:31:58 79° 61° (ENE) 16:40:01 435.175 FM
ITAMSAT 1 30 Jul 16:51:08 16:52:58 12° 269° (W) 16:54:48 435.822 SSB
JAS-1B 30 Jul 17:09:48 17:17:23 32° 268° (W) 17:25:44 435.800 - 435.900 CW/SSB
TMSAT-1 30 Jul 17:14:44 17:19:01 25° 265° (W) 17:23:19 436.925 FM
OPAL 30 Jul 17:17:45 17:22:08 28° 99° (E) 17:26:31 ?
Saudisat 1A 30 Jul 17:23:04 17:27:29 78° 59° (ENE) 17:31:52 436.775 MHz
AO-7 30 Jul 17:29:12 17:37:34 85° 253° (WSW) 17:45:59 29.400 - 29.500 MHz
Uosat F 30 Jul 17:56:17 18:01:01 41° 261° (W) 18:05:46 435.120 FM
RS-15 30 Jul 18:03:13 18:09:41 17° 341° (NNW) 18:16:09 29.354 - 29.394 USB, Beacon 29.352 USB
KITSAT 1 30 Jul 18:21:07 18:26:25 19° 258° (WSW) 18:31:43 435.175 FM
JAS-2 30 Jul 18:46:19 18:53:47 51° 71° (ENE) 19:00:46 435.800 - 435.900 CW/SSB, 435.910 FM
OPAL 30 Jul 18:56:30 19:00:56 31° 293° (WNW) 19:05:25 ?
Hamsat 30 Jul 19:09:41 19:13:51 90° 88° (E) 19:18:04 145.90 MHz
AO-7 30 Jul 19:27:15 19:31:21 14° 269° (W) 19:35:27 29.400 - 29.500 MHz
STRAND 1 30 Jul 19:44:13 19:48:05 22° 95° (E) 19:51:56 ?
SO-67 30 Jul 19:57:01 20:00:15 39° 75° (ENE) 20:03:32 435.3500 MHz FM
HO-68 30 Jul 20:12:12 20:14:49 12° 54° (NE) 20:17:25 435.675 MHz FM
RS-15 30 Jul 20:22:10 20:28:36 17° 19° (NNE) 20:35:05 29.354 - 29.394 USB, Beacon 29.352 USB
JAS-2 30 Jul 20:32:10 20:38:51 31° 265° (W) 20:45:15 435.800 - 435.900 CW/SSB, 435.910 FM
SO-50 30 Jul 20:50:35 20:53:09 14° 44° (NE) 20:55:44 436.795 FM
MaSat-1 30 Jul 21:11:43 21:15:04 26° 103° (ESE) 21:18:51 437.345 MHz
STRAND 1 30 Jul 21:22:39 21:27:22 39° 290° (WNW) 21:32:03 ?
UKube-1 30 Jul 21:33:55 21:37:18 22° 68° (ENE) 21:40:42 145.840 MHz, 145.915 MHz
HO-68 30 Jul 21:54:08 22:01:15 72° 72° (ENE) 22:08:23 435.675 MHz FM
Oscar 11 30 Jul 22:16:28 22:20:16 31° 71° (ENE) 22:24:04 145.825 FM, Beacon 2401.500 USB
SO-50 30 Jul 22:29:29 22:34:15 78° 241° (WSW) 22:39:05 436.795 FM
RS-15 30 Jul 22:34:13 22:44:46 47° 50° (NE) 22:55:37 29.354 - 29.394 USB, Beacon 29.352 USB
UOSAT-12 30 Jul 22:40:59 22:43:16 13° 43° (NE) 22:45:32 437.025 FM, 437.400 FM
FUNcube-1 30 Jul 22:43:57 22:47:19 23° 70° (ENE) 22:50:38 145.950 - 145.970 MHz USB
MaSat-1 30 Jul 22:48:48 22:52:17 25° 305° (NW) 22:56:13 437.345 MHz
UKube-1 30 Jul 23:09:33 23:13:20 29° 263° (W) 23:17:09 145.840 MHz, 145.915 MHz
ISS 30 Jul 23:24:27 23:27:41 53° 136° (SE) 23:30:58 145.800 FM
HO-68 30 Jul 23:44:45 23:49:29 19° 267° (W) 23:54:15 435.675 MHz FM
Oscar 11 30 Jul 23:53:23 23:56:28 19° 266° (W) 23:59:35 145.825 FM, Beacon 2401.500 USB
UOSAT-12 31 Jul 00:19:18 00:24:02 83° 241° (WSW) 00:28:41 437.025 FM, 437.400 FM
FUNcube-1 31 Jul 00:19:56 00:23:35 26° 264° (W) 00:27:10 145.950 - 145.970 MHz USB
Sapphire 31 Jul 00:24:30 00:28:41 23° 106° (ESE) 00:32:53 437.095 MHz 1200 baud AX-25 AFSK
RS-15 31 Jul 00:46:41 00:57:08 50° 250° (WSW) 01:08:01 29.354 - 29.394 USB, Beacon 29.352 USB
PCSat 31 Jul 00:56:27 01:01:39 51° 112° (ESE) 01:06:53 145.825 MHz
ISS 31 Jul 01:02:09 01:04:37 19° 332° (NNW) 01:07:06 145.800 FM
Sapphire 31 Jul 02:06:41 02:11:48 42° 303° (WNW) 02:16:57 437.095 MHz 1200 baud AX-25 AFSK
Oscar 19 31 Jul 02:29:54 02:33:42 20° 94° (E) 02:37:30 437.125 CW, 437.150 USB
PCSat 31 Jul 02:41:12 02:45:20 22° 309° (NW) 02:49:31 145.825 MHz
Oscar 16 31 Jul 02:57:50 03:02:42 41° 99° (E) 03:07:34 437.025 USB, Beacon 2401.1428
JAS-1B 31 Jul 03:09:18 03:15:41 21° 87° (E) 03:21:21 435.800 - 435.900 CW/SSB
ITAMSAT 1 31 Jul 03:23:33 03:28:05 30° 97° (E) 03:32:35 435.822 SSB
